Flag for Canada Weather past 2 weeks in Kamloops, British Columbia, Canada

Now
45 °F

Clear.


Feels Like: 38 °F
Forecast: 42 / 58 °F
Wind: 13 mph from East

Location: Kamloops


UV Index: 0 (Low)

Visibility: 40 mi


Pressure: 29.74 "Hg

Humidity: 66%

Dew point: 34 °F

Location of KamloopsLocation

Historic Weather in Kamloops

°F

Kamloops temperature yesterday

Maximum temperature yesterday: 55 °F (at 3:00 PM)
Minimum temperature yesterday: 37 °F (at 4:00 AM)
Average temperature yesterday: 47 °F

Past Weeks' High & Low Weather Summary

 TemperatureHumidityPressure
High70 °F (Apr 14, 5:00 PM)93% (Apr 22, 7:00 AM)30.46 "Hg (Apr 22, 7:00 AM)
Low32 °F (Apr 13, 6:00 AM)11% (Apr 14, 5:00 PM)29.59 "Hg (Apr 17, 11:00 PM)
Average49 °F54%29.96 "Hg
* Reported Apr 8 11:00 PM — Apr 23 11:00 PM, Kamloops, Weather by CustomWeather, © 2014

Note: Actual official high and low records may vary slightly from our data, if they occured in-between our weather recording intervals... More about our weather records

Advertising

Historic Weather Conditions — Data for Previous 24 hours

 ConditionsComfort  
Time TempWeatherWind HumidityBarometerVisibility
11:00 PM
Apr 23
45 °FClear.13 mph66%29.74 "Hg40 mi
10:00 PM46 °FClear.14 mph53%29.74 "Hg40 mi
9:00 PM48 °FScattered clouds.8 mph50%29.74 "Hg40 mi
8:00 PM50 °FScattered clouds.7 mph50%29.72 "Hg40 mi
7:00 PM54 °FPartly sunny.7 mph41%29.72 "Hg40 mi
6:00 PM55 °FBroken clouds.No wind38%29.72 "Hg40 mi
5:00 PM55 °FScattered clouds.5 mph38%29.73 "Hg40 mi
4:00 PM55 °FBroken clouds.12 mph44%29.75 "Hg40 mi
3:00 PM55 °FSprinkles. Partly sunny.5 mph41%29.77 "Hg40 mi
2:00 PM54 °FPartly sunny.9 mph47%29.78 "Hg40 mi
1:00 PM52 °FScattered clouds.3 mph35%29.78 "Hg40 mi
12:00 PM52 °FPassing clouds.3 mph50%29.79 "Hg40 mi
11:00 AM48 °FPassing clouds.3 mph58%29.81 "Hg40 mi
10:00 AM46 °FPassing clouds.2 mph66%29.83 "Hg40 mi
9:00 AM43 °FPassing clouds.2 mph81%29.83 "Hg40 mi
8:00 AM41 °FScattered clouds.5 mph87%29.84 "Hg40 mi
7:00 AM37 °FScattered clouds.2 mph93%29.84 "Hg40 mi
5:00 AM37 °FPassing clouds.2 mph93%29.82 "Hg35 mi
4:00 AM37 °FPassing clouds.3 mph93%29.81 "Hg35 mi
3:00 AM39 °FMostly cloudy.3 mph87%29.81 "Hg30 mi
2:00 AM41 °FMostly cloudy.3 mph87%29.80 "Hg30 mi
1:00 AM41 °FLight rain. Mostly cloudy.7 mph87%29.80 "Hg25 mi
12:00 AM41 °FMostly cloudy.3 mph87%29.79 "Hg40 mi
Weather by CustomWeather, © 2014

See weather overview